Year,Month,Day,Hour,Minute,Value (Times are PST for barometer in hPa)
2013,01,16,00,00,1038.74
2013,01,16,00,01,1038.78
2013,01,16,00,02,1038.74
2013,01,16,00,03,1038.74
2013,01,16,00,04,1038.78
2013,01,16,00,05,1038.74
2013,01,16,00,06,1038.78
2013,01,16,00,07,1038.81
2013,01,16,00,08,1038.78
2013,01,16,00,09,1038.81
2013,01,16,00,10,1038.74
2013,01,16,00,11,1038.74
2013,01,16,00,12,1038.74
2013,01,16,00,13,1038.74
2013,01,16,00,14,1038.74
2013,01,16,00,15,1038.78
2013,01,16,00,16,1038.74
2013,01,16,00,17,1038.71
2013,01,16,00,18,1038.78
2013,01,16,00,19,1038.78
2013,01,16,00,20,1038.74
2013,01,16,00,21,1038.78
2013,01,16,00,22,1038.78
2013,01,16,00,23,1038.74
2013,01,16,00,24,1038.81
2013,01,16,00,25,1038.78
2013,01,16,00,26,1038.78
2013,01,16,00,27,1038.74
2013,01,16,00,28,1038.78
2013,01,16,00,29,1038.71
2013,01,16,00,30,1038.71
2013,01,16,00,31,1038.71
2013,01,16,00,32,1038.71
2013,01,16,00,33,1038.67
2013,01,16,00,34,1038.67
2013,01,16,00,35,1038.74
2013,01,16,00,36,1038.74
2013,01,16,00,37,1038.74
2013,01,16,00,38,1038.71
2013,01,16,00,39,1038.71
2013,01,16,00,40,1038.78
2013,01,16,00,41,1038.71
2013,01,16,00,42,1038.71
2013,01,16,00,43,1038.71
2013,01,16,00,44,1038.67
2013,01,16,00,45,1038.64
2013,01,16,00,46,1038.71
2013,01,16,00,47,1038.71
2013,01,16,00,48,1038.71
2013,01,16,00,49,1038.71
2013,01,16,00,50,1038.71
2013,01,16,00,51,1038.74
2013,01,16,00,52,1038.74
2013,01,16,00,53,1038.74
2013,01,16,00,54,1038.78
2013,01,16,00,55,1038.78
2013,01,16,00,56,1038.78
2013,01,16,00,57,1038.78
2013,01,16,00,58,1038.81
2013,01,16,00,59,1038.81
2013,01,16,01,00,1038.78
2013,01,16,01,01,1038.84
2013,01,16,01,02,1038.78
2013,01,16,01,03,1038.81
2013,01,16,01,04,1038.78
2013,01,16,01,05,1038.81
2013,01,16,01,06,1038.78
2013,01,16,01,07,1038.84
2013,01,16,01,08,1038.81
2013,01,16,01,09,1038.81
2013,01,16,01,10,1038.78
2013,01,16,01,11,1038.81
2013,01,16,01,12,1038.81
2013,01,16,01,13,1038.81
2013,01,16,01,14,1038.78
2013,01,16,01,15,1038.78
2013,01,16,01,16,1038.71
2013,01,16,01,17,1038.71
2013,01,16,01,18,1038.74
2013,01,16,01,19,1038.71
2013,01,16,01,20,1038.74
2013,01,16,01,21,1038.78
2013,01,16,01,22,1038.74
2013,01,16,01,23,1038.74
2013,01,16,01,24,1038.74
2013,01,16,01,25,1038.74
2013,01,16,01,26,1038.78
2013,01,16,01,27,1038.78
2013,01,16,01,28,1038.81
2013,01,16,01,29,1038.81
2013,01,16,01,30,1038.84
2013,01,16,01,31,1038.81
2013,01,16,01,32,1038.84
2013,01,16,01,33,1038.78
2013,01,16,01,34,1038.78
2013,01,16,01,35,1038.74
2013,01,16,01,36,1038.78
2013,01,16,01,37,1038.78
2013,01,16,01,38,1038.81
2013,01,16,01,39,1038.78
2013,01,16,01,40,1038.78
2013,01,16,01,41,1038.74
2013,01,16,01,42,1038.78
2013,01,16,01,43,1038.78
2013,01,16,01,44,1038.81
2013,01,16,01,45,1038.74
2013,01,16,01,46,1038.78
2013,01,16,01,47,1038.74
2013,01,16,01,48,1038.78
2013,01,16,01,49,1038.78
2013,01,16,01,50,1038.78
2013,01,16,01,51,1038.81
2013,01,16,01,52,1038.81
2013,01,16,01,53,1038.81
2013,01,16,01,54,1038.81
2013,01,16,01,55,1038.84
2013,01,16,01,56,1038.84
2013,01,16,01,57,1038.84
2013,01,16,01,58,1038.88
2013,01,16,01,59,1038.88
2013,01,16,02,00,1038.88
2013,01,16,02,01,1038.84
2013,01,16,02,02,1038.84
2013,01,16,02,03,1038.84
2013,01,16,02,04,1038.91
2013,01,16,02,05,1038.91
2013,01,16,02,06,1038.91
2013,01,16,02,07,1038.94
2013,01,16,02,08,1038.94
2013,01,16,02,09,1038.98
2013,01,16,02,10,1038.94
2013,01,16,02,11,1038.94
2013,01,16,02,12,1038.94
2013,01,16,02,13,1038.98
2013,01,16,02,14,1038.94
2013,01,16,02,15,1038.98
2013,01,16,02,16,1038.94
2013,01,16,02,17,1038.98
2013,01,16,02,18,1038.94
2013,01,16,02,19,1038.98
2013,01,16,02,20,1038.98
2013,01,16,02,21,1038.98
2013,01,16,02,22,1039.01
2013,01,16,02,23,1039.05
2013,01,16,02,24,1039.01
2013,01,16,02,25,1039.01
2013,01,16,02,26,1039.01
2013,01,16,02,27,1039.01
2013,01,16,02,28,1039.05
2013,01,16,02,29,1039.05
2013,01,16,02,30,1039.05
2013,01,16,02,31,1039.08
2013,01,16,02,32,1039.08
2013,01,16,02,33,1039.05
2013,01,16,02,34,1039.08
2013,01,16,02,35,1039.08
2013,01,16,02,36,1039.05
2013,01,16,02,37,1039.08
2013,01,16,02,38,1039.05
2013,01,16,02,39,1039.08
2013,01,16,02,40,1039.11
2013,01,16,02,41,1039.05
2013,01,16,02,42,1039.05
2013,01,16,02,43,1039.05
2013,01,16,02,44,1039.05
2013,01,16,02,45,1039.08
2013,01,16,02,46,1039.08
2013,01,16,02,47,1039.08
2013,01,16,02,48,1039.11
2013,01,16,02,49,1039.11
2013,01,16,02,50,1039.08
2013,01,16,02,51,1039.08
2013,01,16,02,52,1039.05
2013,01,16,02,53,1039.11
2013,01,16,02,54,1039.11
2013,01,16,02,55,1039.15
2013,01,16,02,56,1039.11
2013,01,16,02,57,1039.08
2013,01,16,02,58,1039.15
2013,01,16,02,59,1039.15
2013,01,16,03,00,1039.11
2013,01,16,03,01,1039.15
2013,01,16,03,02,1039.11
2013,01,16,03,03,1039.11
2013,01,16,03,04,1039.08
2013,01,16,03,05,1039.08
2013,01,16,03,06,1039.05
2013,01,16,03,07,1039.11
2013,01,16,03,08,1039.08
2013,01,16,03,09,1039.15
2013,01,16,03,10,1039.11
2013,01,16,03,11,1039.08
2013,01,16,03,12,1039.05
2013,01,16,03,13,1039.05
2013,01,16,03,14,1039.01
2013,01,16,03,15,1039.01
2013,01,16,03,16,1038.98
2013,01,16,03,17,1038.98
2013,01,16,03,18,1038.98
2013,01,16,03,19,1038.94
2013,01,16,03,20,1038.94
2013,01,16,03,21,1038.91
2013,01,16,03,22,1038.91
2013,01,16,03,23,1038.91
2013,01,16,03,24,1038.88
2013,01,16,03,25,1038.91
2013,01,16,03,26,1038.91
2013,01,16,03,27,1038.94
2013,01,16,03,28,1038.94
2013,01,16,03,29,1038.94
2013,01,16,03,30,1038.94
2013,01,16,03,31,1038.91
2013,01,16,03,32,1038.91
2013,01,16,03,33,1038.91
2013,01,16,03,34,1038.91
2013,01,16,03,35,1038.94
2013,01,16,03,36,1038.91
2013,01,16,03,37,1038.91
2013,01,16,03,38,1038.88
2013,01,16,03,39,1038.88
2013,01,16,03,40,1038.88
2013,01,16,03,41,1038.84
2013,01,16,03,42,1038.91
2013,01,16,03,43,1038.84
2013,01,16,03,44,1038.81
2013,01,16,03,45,1038.81
2013,01,16,03,46,1038.78
2013,01,16,03,47,1038.84
2013,01,16,03,48,1038.81
2013,01,16,03,49,1038.81
2013,01,16,03,50,1038.71
2013,01,16,03,51,1038.78
2013,01,16,03,52,1038.74
2013,01,16,03,53,1038.74
2013,01,16,03,54,1038.74
2013,01,16,03,55,1038.78
2013,01,16,03,56,1038.78
2013,01,16,03,57,1038.74
2013,01,16,03,58,1038.74
2013,01,16,03,59,1038.74
2013,01,16,04,00,1038.64
2013,01,16,04,01,1038.71
2013,01,16,04,02,1038.67
2013,01,16,04,03,1038.67
2013,01,16,04,04,1038.64
2013,01,16,04,05,1038.64
2013,01,16,04,06,1038.64
2013,01,16,04,07,1038.71
2013,01,16,04,08,1038.67
2013,01,16,04,09,1038.67
2013,01,16,04,10,1038.71
2013,01,16,04,11,1038.71
2013,01,16,04,12,1038.71
2013,01,16,04,13,1038.67
2013,01,16,04,14,1038.67
2013,01,16,04,15,1038.64
2013,01,16,04,16,1038.64
2013,01,16,04,17,1038.61
2013,01,16,04,18,1038.61
2013,01,16,04,19,1038.61
2013,01,16,04,20,1038.57
2013,01,16,04,21,1038.57
2013,01,16,04,22,1038.61
2013,01,16,04,23,1038.57
2013,01,16,04,24,1038.57
2013,01,16,04,25,1038.54
2013,01,16,04,26,1038.50
2013,01,16,04,27,1038.47
2013,01,16,04,28,1038.44
2013,01,16,04,29,1038.44
2013,01,16,04,30,1038.40
2013,01,16,04,31,1038.40
2013,01,16,04,32,1038.40
2013,01,16,04,33,1038.40
2013,01,16,04,34,1038.39
2013,01,16,04,35,1038.27
2013,01,16,04,36,1038.27
2013,01,16,04,37,1038.30
2013,01,16,04,38,1038.30
2013,01,16,04,39,1038.23
2013,01,16,04,40,1038.23
2013,01,16,04,41,1038.27
2013,01,16,04,42,1038.23
2013,01,16,04,43,1038.20
2013,01,16,04,44,1038.20
2013,01,16,04,45,1038.17
2013,01,16,04,46,1038.17
2013,01,16,04,47,1038.17
2013,01,16,04,48,1038.10
2013,01,16,04,49,1038.10
2013,01,16,04,50,1038.10
2013,01,16,04,51,1038.06
2013,01,16,04,52,1038.13
2013,01,16,04,53,1038.13
2013,01,16,04,54,1038.10
2013,01,16,04,55,1038.06
2013,01,16,04,56,1038.10
2013,01,16,04,57,1038.13
2013,01,16,04,58,1038.13
2013,01,16,04,59,1038.10
2013,01,16,05,00,1038.13
2013,01,16,05,01,1038.13
2013,01,16,05,02,1038.06
2013,01,16,05,03,1038.06
2013,01,16,05,04,1038.06
2013,01,16,05,05,1038.03
2013,01,16,05,06,1038.06
2013,01,16,05,07,1038.00
2013,01,16,05,08,1038.00
2013,01,16,05,09,1037.96
2013,01,16,05,10,1037.96
2013,01,16,05,11,1037.93
2013,01,16,05,12,1037.93
2013,01,16,05,13,1037.93
2013,01,16,05,14,1037.89
2013,01,16,05,15,1037.89
2013,01,16,05,16,1037.89
2013,01,16,05,17,1037.89
2013,01,16,05,18,1037.86
2013,01,16,05,19,1037.83
2013,01,16,05,20,1037.83
2013,01,16,05,21,1037.86
2013,01,16,05,22,1037.83
2013,01,16,05,23,1037.79
2013,01,16,05,24,1037.79
2013,01,16,05,25,1037.76
2013,01,16,05,26,1037.76
2013,01,16,05,27,1037.73
2013,01,16,05,28,1037.69
2013,01,16,05,29,1037.73
2013,01,16,05,30,1037.73
2013,01,16,05,31,1037.73
2013,01,16,05,32,1037.73
2013,01,16,05,33,1037.73
2013,01,16,05,34,1037.73
2013,01,16,05,35,1037.73
2013,01,16,05,36,1037.73
2013,01,16,05,37,1037.73
2013,01,16,05,38,1037.73
2013,01,16,05,39,1037.73
2013,01,16,05,40,1037.69
2013,01,16,05,41,1037.69
2013,01,16,05,42,1037.69
2013,01,16,05,43,1037.62
2013,01,16,05,44,1037.62
2013,01,16,05,45,1037.66
2013,01,16,05,46,1037.66
2013,01,16,05,47,1037.59
2013,01,16,05,48,1037.59
2013,01,16,05,49,1037.52
2013,01,16,05,50,1037.52
2013,01,16,05,51,1037.49
2013,01,16,05,52,1037.52
2013,01,16,05,53,1037.49
2013,01,16,05,54,1037.55
2013,01,16,05,55,1037.45
2013,01,16,05,56,1037.49
2013,01,16,05,57,1037.49
2013,01,16,05,58,1037.45
2013,01,16,05,59,1037.42
2013,01,16,06,00,1037.32
2013,01,16,06,01,1037.32
2013,01,16,06,02,1037.32
2013,01,16,06,03,1037.32
2013,01,16,06,04,1037.32
2013,01,16,06,05,1037.29
2013,01,16,06,06,1037.25
2013,01,16,06,07,1037.25
2013,01,16,06,08,1037.29
2013,01,16,06,09,1037.29
2013,01,16,06,10,1037.22
2013,01,16,06,11,1037.22
2013,01,16,06,12,1037.25
2013,01,16,06,13,1037.22
2013,01,16,06,14,1037.29
2013,01,16,06,15,1037.22
2013,01,16,06,16,1037.22
2013,01,16,06,17,1037.25
2013,01,16,06,18,1037.25
2013,01,16,06,19,1037.18
2013,01,16,06,20,1037.18
2013,01,16,06,21,1037.15
2013,01,16,06,22,1037.15
2013,01,16,06,23,1037.15
2013,01,16,06,24,1037.18
2013,01,16,06,25,1037.15
2013,01,16,06,26,1037.12
2013,01,16,06,27,1037.12
2013,01,16,06,28,1037.12
2013,01,16,06,29,1037.08
2013,01,16,06,30,1037.12
2013,01,16,06,31,1037.12
2013,01,16,06,32,1037.12
2013,01,16,06,33,1037.15
2013,01,16,06,34,1037.08
2013,01,16,06,35,1037.08
2013,01,16,06,36,1037.12
2013,01,16,06,37,1037.08
2013,01,16,06,38,1037.15
2013,01,16,06,39,1037.15
2013,01,16,06,40,1037.12
2013,01,16,06,41,1037.08
2013,01,16,06,42,1037.08
2013,01,16,06,43,1037.12
2013,01,16,06,44,1037.12
2013,01,16,06,45,1037.08
2013,01,16,06,46,1037.08
2013,01,16,06,47,1037.08
2013,01,16,06,48,1037.01
2013,01,16,06,49,1037.01
2013,01,16,06,50,1037.05
2013,01,16,06,51,1036.98
2013,01,16,06,52,1037.01
2013,01,16,06,53,1037.01
2013,01,16,06,54,1037.01
2013,01,16,06,55,1036.98
2013,01,16,06,56,1037.01
2013,01,16,06,57,1037.05
2013,01,16,06,58,1037.01
2013,01,16,06,59,1037.05
2013,01,16,07,00,1037.01
2013,01,16,07,01,1037.01
2013,01,16,07,02,1037.05
2013,01,16,07,03,1037.01
2013,01,16,07,04,1037.01
2013,01,16,07,05,1036.98
2013,01,16,07,06,1037.01
2013,01,16,07,07,1037.05
2013,01,16,07,08,1037.08
2013,01,16,07,09,1037.12
2013,01,16,07,10,1037.12
2013,01,16,07,11,1037.12
2013,01,16,07,12,1037.15
2013,01,16,07,13,1037.12
2013,01,16,07,14,1037.12
2013,01,16,07,15,1037.15
2013,01,16,07,16,1037.18
2013,01,16,07,17,1037.15
2013,01,16,07,18,1037.18
2013,01,16,07,19,1037.15
2013,01,16,07,20,1037.18
2013,01,16,07,21,1037.18
2013,01,16,07,22,1037.18
2013,01,16,07,23,1037.22
2013,01,16,07,24,1037.18
2013,01,16,07,25,1037.22
2013,01,16,07,26,1037.18
2013,01,16,07,27,1037.22
2013,01,16,07,28,1037.22
2013,01,16,07,29,1037.29
2013,01,16,07,30,1037.25
2013,01,16,07,31,1037.29
2013,01,16,07,32,1037.29
2013,01,16,07,33,1037.32
2013,01,16,07,34,1037.29
2013,01,16,07,35,1037.35
2013,01,16,07,36,1037.32
2013,01,16,07,37,1037.35
2013,01,16,07,38,1037.32
2013,01,16,07,39,1037.35
2013,01,16,07,40,1037.35
2013,01,16,07,41,1037.39
2013,01,16,07,42,1037.35
2013,01,16,07,43,1037.39
2013,01,16,07,44,1037.39
2013,01,16,07,45,1037.35
2013,01,16,07,46,1037.35
2013,01,16,07,47,1037.35
2013,01,16,07,48,1037.35
2013,01,16,07,49,1037.35
2013,01,16,07,50,1037.35
2013,01,16,07,51,1037.35
2013,01,16,07,52,1037.32
2013,01,16,07,53,1037.32
2013,01,16,07,54,1037.32
2013,01,16,07,55,1037.35
2013,01,16,07,56,1037.32
2013,01,16,07,57,1037.39
2013,01,16,07,58,1037.35
2013,01,16,07,59,1037.35
2013,01,16,08,00,1037.32
2013,01,16,08,01,1037.35
2013,01,16,08,02,1037.35
2013,01,16,08,03,1037.39
2013,01,16,08,04,1037.35
2013,01,16,08,05,1037.35
2013,01,16,08,06,1037.35
2013,01,16,08,07,1037.39
2013,01,16,08,08,1037.39
2013,01,16,08,09,1037.39
2013,01,16,08,10,1037.45
2013,01,16,08,11,1037.42
2013,01,16,08,12,1037.42
2013,01,16,08,13,1037.39
2013,01,16,08,14,1037.39
2013,01,16,08,15,1037.39
2013,01,16,08,16,1037.35
2013,01,16,08,17,1037.35
2013,01,16,08,18,1037.35
2013,01,16,08,19,1037.32
2013,01,16,08,20,1037.32
2013,01,16,08,21,1037.32
2013,01,16,08,22,1037.32
2013,01,16,08,23,1037.32
2013,01,16,08,24,1037.35
2013,01,16,08,25,1037.35
2013,01,16,08,26,1037.39
2013,01,16,08,27,1037.42
2013,01,16,08,28,1037.42
2013,01,16,08,29,1037.42
2013,01,16,08,30,1037.39
2013,01,16,08,31,1037.35
2013,01,16,08,32,1037.42
2013,01,16,08,33,1037.42
2013,01,16,08,34,1037.45
2013,01,16,08,35,1037.45
2013,01,16,08,36,1037.42
2013,01,16,08,37,1037.39
2013,01,16,08,38,1037.45
2013,01,16,08,39,1037.45
2013,01,16,08,40,1037.45
2013,01,16,08,41,1037.42
2013,01,16,08,42,1037.45
2013,01,16,08,43,1037.45
2013,01,16,08,44,1037.42
2013,01,16,08,45,1037.45
2013,01,16,08,46,1037.45
2013,01,16,08,47,1037.49
2013,01,16,08,48,1037.49
2013,01,16,08,49,1037.49
2013,01,16,08,50,1037.45
2013,01,16,08,51,1037.49
2013,01,16,08,52,1037.49
2013,01,16,08,53,1037.52
2013,01,16,08,54,1037.52
2013,01,16,08,55,1037.59
2013,01,16,08,56,1037.59
2013,01,16,08,57,1037.52
2013,01,16,08,58,1037.52
2013,01,16,08,59,1037.56
2013,01,16,09,00,1037.52
2013,01,16,09,01,1037.52
2013,01,16,09,02,1037.49
2013,01,16,09,03,1037.49
2013,01,16,09,04,1037.52
2013,01,16,09,05,1037.52
2013,01,16,09,06,1037.56
2013,01,16,09,07,1037.49
2013,01,16,09,08,1037.52
2013,01,16,09,09,1037.52
2013,01,16,09,10,1037.56
2013,01,16,09,11,1037.49
2013,01,16,09,12,1037.56
2013,01,16,09,13,1037.56
2013,01,16,09,14,1037.59
2013,01,16,09,15,1037.56
2013,01,16,09,16,1037.59
2013,01,16,09,17,1037.59
2013,01,16,09,18,1037.59
2013,01,16,09,19,1037.56
2013,01,16,09,20,1037.56
2013,01,16,09,21,1037.56
2013,01,16,09,22,1037.49
2013,01,16,09,23,1037.52
2013,01,16,09,24,1037.52
2013,01,16,09,25,1037.52
2013,01,16,09,26,1037.49
2013,01,16,09,27,1037.45
2013,01,16,09,28,1037.45
2013,01,16,09,29,1037.49
2013,01,16,09,30,1037.56
2013,01,16,09,31,1037.52
2013,01,16,09,32,1037.52
2013,01,16,09,33,1037.52
2013,01,16,09,34,1037.52
2013,01,16,09,35,1037.56
2013,01,16,09,36,1037.52
2013,01,16,09,37,1037.52
2013,01,16,09,38,1037.56
2013,01,16,09,39,1037.56
2013,01,16,09,40,1037.56
2013,01,16,09,41,1037.52
2013,01,16,09,42,1037.49
2013,01,16,09,43,1037.56
2013,01,16,09,44,1037.52
2013,01,16,09,45,1037.52
2013,01,16,09,46,1037.49
2013,01,16,09,47,1037.49
2013,01,16,09,48,1037.52
2013,01,16,09,49,1037.52
2013,01,16,09,50,1037.49
2013,01,16,09,51,1037.49
2013,01,16,09,52,1037.49
2013,01,16,09,53,1037.56
2013,01,16,09,54,1037.56
2013,01,16,09,55,1037.56
2013,01,16,09,56,1037.52
2013,01,16,09,57,1037.52
2013,01,16,09,58,1037.49
2013,01,16,09,59,1037.52
2013,01,16,10,00,1037.52
2013,01,16,10,01,1037.52
2013,01,16,10,02,1037.56
2013,01,16,10,03,1037.59
2013,01,16,10,04,1037.52
2013,01,16,10,05,1037.56
2013,01,16,10,06,1037.56
2013,01,16,10,07,1037.52
2013,01,16,10,08,1037.56
2013,01,16,10,09,1037.52
2013,01,16,10,10,1037.52
2013,01,16,10,11,1037.49
2013,01,16,10,12,1037.52
2013,01,16,10,13,1037.49
2013,01,16,10,14,1037.52
2013,01,16,10,15,1037.52
2013,01,16,10,16,1037.56
2013,01,16,10,17,1037.49
2013,01,16,10,18,1037.56
2013,01,16,10,19,1037.56
2013,01,16,10,20,1037.56
2013,01,16,10,21,1037.52
2013,01,16,10,22,1037.52
2013,01,16,10,23,1037.56
2013,01,16,10,24,1037.52
2013,01,16,10,25,1037.49
2013,01,16,10,26,1037.45
2013,01,16,10,27,1037.49
2013,01,16,10,28,1037.49
2013,01,16,10,29,1037.52
2013,01,16,10,30,1037.59
2013,01,16,10,31,1037.52
2013,01,16,10,32,1037.56
2013,01,16,10,33,1037.49
2013,01,16,10,34,1037.56
2013,01,16,10,35,1037.52
2013,01,16,10,36,1037.56
2013,01,16,10,37,1037.52
2013,01,16,10,38,1037.56
2013,01,16,10,39,1037.56
2013,01,16,10,40,1037.56
2013,01,16,10,41,1037.52
2013,01,16,10,42,1037.52
2013,01,16,10,43,1037.52
2013,01,16,10,44,1037.52
2013,01,16,10,45,1037.52
2013,01,16,10,46,1037.52
2013,01,16,10,47,1037.49
2013,01,16,10,48,1037.45
2013,01,16,10,49,1037.49
2013,01,16,10,50,1037.42
2013,01,16,10,51,1037.42
2013,01,16,10,52,1037.45
2013,01,16,10,53,1037.45
2013,01,16,10,54,1037.45
2013,01,16,10,55,1037.49
2013,01,16,10,56,1037.45
2013,01,16,10,57,1037.45
2013,01,16,10,58,1037.49
2013,01,16,10,59,1037.49
2013,01,16,11,00,1037.49
2013,01,16,11,01,1037.49
2013,01,16,11,02,1037.45
2013,01,16,11,03,1037.45
2013,01,16,11,04,1037.42
2013,01,16,11,05,1037.45
2013,01,16,11,06,1037.45
2013,01,16,11,07,1037.42
2013,01,16,11,08,1037.42
2013,01,16,11,09,1037.39
2013,01,16,11,10,1037.42
2013,01,16,11,11,1037.39
2013,01,16,11,12,1037.39
2013,01,16,11,13,1037.35
2013,01,16,11,14,1037.35
2013,01,16,11,15,1037.39
2013,01,16,11,16,1037.39
2013,01,16,11,17,1037.42
2013,01,16,11,18,1037.35
2013,01,16,11,19,1037.39
2013,01,16,11,20,1037.32
2013,01,16,11,21,1037.29
2013,01,16,11,22,1037.32
2013,01,16,11,23,1037.25
2013,01,16,11,24,1037.29
2013,01,16,11,25,1037.25
2013,01,16,11,26,1037.25
2013,01,16,11,27,1037.22
2013,01,16,11,28,1037.25
2013,01,16,11,29,1037.18
2013,01,16,11,30,1037.18
2013,01,16,11,31,1037.12
2013,01,16,11,32,1037.12
2013,01,16,11,33,1037.08
2013,01,16,11,34,1037.08
2013,01,16,11,35,1037.12
2013,01,16,11,36,1037.12
2013,01,16,11,37,1037.08
2013,01,16,11,38,1037.05
2013,01,16,11,39,1037.08
2013,01,16,11,40,1037.08
2013,01,16,11,41,1037.05
2013,01,16,11,42,1037.01
2013,01,16,11,43,1037.05
2013,01,16,11,44,1037.01
2013,01,16,11,45,1037.05
2013,01,16,11,46,1036.95
2013,01,16,11,47,1036.95
2013,01,16,11,48,1036.98
2013,01,16,11,49,1036.98
2013,01,16,11,50,1036.95
2013,01,16,11,51,1036.91
2013,01,16,11,52,1036.88
2013,01,16,11,53,1036.88
2013,01,16,11,54,1036.84
2013,01,16,11,55,1036.81
2013,01,16,11,56,1036.81
2013,01,16,11,57,1036.84
2013,01,16,11,58,1036.78
2013,01,16,11,59,1036.78
2013,01,16,12,00,1036.74
2013,01,16,12,01,1036.74
2013,01,16,12,02,1036.71
2013,01,16,12,03,1036.64
2013,01,16,12,04,1036.71
2013,01,16,12,05,1036.64
2013,01,16,12,06,1036.61
2013,01,16,12,07,1036.57
2013,01,16,12,08,1036.61
2013,01,16,12,09,1036.57
2013,01,16,12,10,1036.57
2013,01,16,12,11,1036.54
2013,01,16,12,12,1036.61
2013,01,16,12,13,1036.54
2013,01,16,12,14,1036.51
2013,01,16,12,15,1036.51
2013,01,16,12,16,1036.51
2013,01,16,12,17,1036.51
2013,01,16,12,18,1036.51
2013,01,16,12,19,1036.54
2013,01,16,12,20,1036.54
2013,01,16,12,21,1036.51
2013,01,16,12,22,1036.47
2013,01,16,12,23,1036.47
2013,01,16,12,24,1036.47
2013,01,16,12,25,1036.44
2013,01,16,12,26,1036.51
2013,01,16,12,27,1036.44
2013,01,16,12,28,1036.47
2013,01,16,12,29,1036.40
2013,01,16,12,30,1036.44
2013,01,16,12,31,1036.44
2013,01,16,12,32,1036.40
2013,01,16,12,33,1036.40
2013,01,16,12,34,1036.37
2013,01,16,12,35,1036.37
2013,01,16,12,36,1036.37
2013,01,16,12,37,1036.37
2013,01,16,12,38,1036.34
2013,01,16,12,39,1036.30
2013,01,16,12,40,1036.30
2013,01,16,12,41,1036.30
2013,01,16,12,42,1036.34
2013,01,16,12,43,1036.34
2013,01,16,12,44,1036.37
2013,01,16,12,45,1036.27
2013,01,16,12,46,1036.34
2013,01,16,12,47,1036.30
2013,01,16,12,48,1036.27
2013,01,16,12,49,1036.27
2013,01,16,12,50,1036.27
2013,01,16,12,51,1036.24
2013,01,16,12,52,1036.27
2013,01,16,12,53,1036.24
2013,01,16,12,54,1036.17
2013,01,16,12,55,1036.17
2013,01,16,12,56,1036.17
2013,01,16,12,57,1036.17
2013,01,16,12,58,1036.13
2013,01,16,12,59,1036.10
2013,01,16,13,00,1036.17
2013,01,16,13,01,1036.13
2013,01,16,13,02,1036.10
2013,01,16,13,03,1036.10
2013,01,16,13,04,1036.17
2013,01,16,13,05,1036.13
2013,01,16,13,06,1036.13
2013,01,16,13,07,1036.13
2013,01,16,13,08,1036.10
2013,01,16,13,09,1036.07
2013,01,16,13,10,1036.07
2013,01,16,13,11,1036.07
2013,01,16,13,12,1036.10
2013,01,16,13,13,1036.10
2013,01,16,13,14,1036.10
2013,01,16,13,15,1036.10
2013,01,16,13,16,1036.10
2013,01,16,13,17,1036.07
2013,01,16,13,18,1036.10
2013,01,16,13,19,1036.07
2013,01,16,13,20,1036.10
2013,01,16,13,21,1036.07
2013,01,16,13,22,1036.03
2013,01,16,13,23,1036.03
2013,01,16,13,24,1036.00
2013,01,16,13,25,1036.00
2013,01,16,13,26,1036.03
2013,01,16,13,27,1036.00
2013,01,16,13,28,1036.03
2013,01,16,13,29,1036.00
2013,01,16,13,30,1036.03
2013,01,16,13,31,1036.03
2013,01,16,13,32,1036.03
2013,01,16,13,33,1036.03
2013,01,16,13,34,1036.00
2013,01,16,13,35,1035.96
2013,01,16,13,36,1036.00
2013,01,16,13,37,1036.03
2013,01,16,13,38,1036.00
2013,01,16,13,39,1035.96
2013,01,16,13,40,1035.96
2013,01,16,13,41,1035.90
2013,01,16,13,42,1035.86
2013,01,16,13,43,1035.90
2013,01,16,13,44,1035.86
2013,01,16,13,45,1035.83
2013,01,16,13,46,1035.80
2013,01,16,13,47,1035.83
2013,01,16,13,48,1035.80
2013,01,16,13,49,1035.80
2013,01,16,13,50,1035.76
2013,01,16,13,51,1035.76
2013,01,16,13,52,1035.73
2013,01,16,13,53,1035.76
2013,01,16,13,54,1035.76
2013,01,16,13,55,1035.76
2013,01,16,13,56,1035.80
2013,01,16,13,57,1035.76
2013,01,16,13,58,1035.76
2013,01,16,13,59,1035.73
2013,01,16,14,00,1035.73
2013,01,16,14,01,1035.69
2013,01,16,14,02,1035.69
2013,01,16,14,03,1035.66
2013,01,16,14,04,1035.66
2013,01,16,14,05,1035.69
2013,01,16,14,06,1035.59
2013,01,16,14,07,1035.63
2013,01,16,14,08,1035.63
2013,01,16,14,09,1035.66
2013,01,16,14,10,1035.63
2013,01,16,14,11,1035.63
2013,01,16,14,12,1035.59
2013,01,16,14,13,1035.63
2013,01,16,14,14,1035.63
2013,01,16,14,15,1035.59
2013,01,16,14,16,1035.56
2013,01,16,14,17,1035.56
2013,01,16,14,18,1035.52
2013,01,16,14,19,1035.56
2013,01,16,14,20,1035.56
2013,01,16,14,21,1035.56
2013,01,16,14,22,1035.52
2013,01,16,14,23,1035.52
2013,01,16,14,24,1035.52
2013,01,16,14,25,1035.49
2013,01,16,14,26,1035.49
2013,01,16,14,27,1035.56
2013,01,16,14,28,1035.63
2013,01,16,14,29,1035.59
2013,01,16,14,30,1035.59
2013,01,16,14,31,1035.66
2013,01,16,14,32,1035.63
2013,01,16,14,33,1035.63
2013,01,16,14,34,1035.69
2013,01,16,14,35,1035.66
2013,01,16,14,36,1035.66
2013,01,16,14,37,1035.63
2013,01,16,14,38,1035.69
2013,01,16,14,39,1035.69
2013,01,16,14,40,1035.69
2013,01,16,14,41,1035.66
2013,01,16,14,42,1035.59
2013,01,16,14,43,1035.63
2013,01,16,14,44,1035.63
2013,01,16,14,45,1035.69
2013,01,16,14,46,1035.66
2013,01,16,14,47,1035.63
2013,01,16,14,48,1035.69
2013,01,16,14,49,1035.69
2013,01,16,14,50,1035.69
2013,01,16,14,51,1035.69
2013,01,16,14,52,1035.66
2013,01,16,14,53,1035.66
2013,01,16,14,54,1035.69
2013,01,16,14,55,1035.66
2013,01,16,14,56,1035.69
2013,01,16,14,57,1035.63
2013,01,16,14,58,1035.59
2013,01,16,14,59,1035.52
2013,01,16,15,00,1035.56
2013,01,16,15,01,1035.49
2013,01,16,15,02,1035.52
2013,01,16,15,03,1035.59
2013,01,16,15,04,1035.56
2013,01,16,15,05,1035.56
2013,01,16,15,06,1035.59
2013,01,16,15,07,1035.56
2013,01,16,15,08,1035.52
2013,01,16,15,09,1035.52
2013,01,16,15,10,1035.56
2013,01,16,15,11,1035.56
2013,01,16,15,12,1035.56
2013,01,16,15,13,1035.56
2013,01,16,15,14,1035.56
2013,01,16,15,15,1035.52
2013,01,16,15,16,1035.52
2013,01,16,15,17,1035.49
2013,01,16,15,18,1035.46
2013,01,16,15,19,1035.46
2013,01,16,15,20,1035.46
2013,01,16,15,21,1035.52
2013,01,16,15,22,1035.49
2013,01,16,15,23,1035.49
2013,01,16,15,24,1035.46
2013,01,16,15,25,1035.42
2013,01,16,15,26,1035.46
2013,01,16,15,27,1035.49
2013,01,16,15,28,1035.52
2013,01,16,15,29,1035.42
2013,01,16,15,30,1035.42
2013,01,16,15,31,1035.42
2013,01,16,15,32,1035.39
2013,01,16,15,33,1035.46
2013,01,16,15,34,1035.42
2013,01,16,15,35,1035.32
2013,01,16,15,36,1035.35
2013,01,16,15,37,1035.35
2013,01,16,15,38,1035.39
2013,01,16,15,39,1035.39
2013,01,16,15,40,1035.35
2013,01,16,15,41,1035.32
2013,01,16,15,42,1035.39
2013,01,16,15,43,1035.39
2013,01,16,15,44,1035.39
2013,01,16,15,45,1035.42
2013,01,16,15,46,1035.39
2013,01,16,15,47,1035.35
2013,01,16,15,48,1035.35
2013,01,16,15,49,1035.35
2013,01,16,15,50,1035.39
2013,01,16,15,51,1035.42
2013,01,16,15,52,1035.35
2013,01,16,15,53,1035.39
2013,01,16,15,54,1035.39
2013,01,16,15,55,1035.39
2013,01,16,15,56,1035.39